• In Netherlands
  • List of Countries
  • For 7 days
  • Water Temperature
  • Satellite Maps
  • Weather Map
  • Weather Widgets
  • user-avatar
    Login

    Hourly Weather Canberra

    Today, 29 April, Saturday

    Time Temperature Precipitation Wind Pressure Humidity
    00:00 +6°C° 0 mm 1 mps 711 mmHg 83%
    01:00 +5°C° 0 mm 1 mps 711 mmHg 83%
    02:00 +5°C° 0 mm 1 mps 711 mmHg 85%
    03:00 +5°C° 0 mm 1 mps 711 mmHg 87%
    04:00 +5°C° 0 mm 1 mps 711 mmHg 87%
    05:00 +5°C° 0 mm 1 mps 711 mmHg 88%
    06:00 +4°C° 0 mm 1 mps 711 mmHg 88%
    07:00 +4°C° 0 mm 1 mps 711 mmHg 89%
    08:00 +8°C° 0 mm 1 mps 712 mmHg 76%
    09:00 +12°C° 0 mm 1 mps 712 mmHg 63%
    10:00 +16°C° 0 mm 1 mps 713 mmHg 50%
    11:00 +18°C° 0 mm 1 mps 713 mmHg 46%
    12:00 +20°C° 0 mm 1 mps 712 mmHg 42%
    13:00 +21°C° 0 mm 1 mps 712 mmHg 39%
    14:00 +21°C° 0 mm 1 mps 712 mmHg 43%
    15:00 +20°C° 0 mm 1 mps 712 mmHg 47%
    16:00 +19°C° 0 mm 1 mps 712 mmHg 51%
    17:00 +16°C° 0 mm 1 mps 712 mmHg 64%
    18:00 +13°C° 0 mm 1 mps 712 mmHg 76%
    19:00 +11°C° 0 mm 1 mps 712 mmHg 89%
    20:00 +10°C° 0 mm 1 mps 712 mmHg 90%
    21:00 +9°C° 0 mm 1 mps 712 mmHg 91%
    22:00 +9°C° 0 mm 1 mps 712 mmHg 91%
    23:00 +9°C° 0 mm 1 mps 712 mmHg 93%

    Tomorrow, 30 April, Sunday

    Time Temperature Precipitation Wind Pressure Humidity
    00:00 +8°C° 0 mm 1 mps 712 mmHg 94%
    01:00 +8°C° 0 mm 1 mps 712 mmHg 95%
    02:00 +8°C° 0 mm 1 mps 712 mmHg 96%
    03:00 +7°C° 0 mm 1 mps 712 mmHg 97%
    04:00 +7°C° 0 mm 1 mps 712 mmHg 97%
    05:00 +7°C° 0 mm 1 mps 712 mmHg 97%
    06:00 +7°C° 0 mm 1 mps 713 mmHg 96%
    07:00 +7°C° 0 mm 1 mps 713 mmHg 96%
    08:00 +10°C° 0 mm 1 mps 713 mmHg 82%
    09:00 +14°C° 0 mm 1 mps 714 mmHg 69%
    10:00 +18°C° 0 mm 1 mps 714 mmHg 55%
    11:00 +19°C° 0 mm 1 mps 714 mmHg 50%
    12:00 +20°C° 0 mm 1 mps 713 mmHg 46%
    13:00 +21°C° 0 mm 1 mps 713 mmHg 41%
    14:00 +21°C° 0 mm 1 mps 713 mmHg 42%
    15:00 +20°C° 0 mm 1 mps 712 mmHg 44%
    16:00 +20°C° 0 mm 1 mps 712 mmHg 46%
    17:00 +16°C° 0 mm 1 mps 712 mmHg 59%
    18:00 +13°C° 0 mm 1 mps 711 mmHg 73%
    19:00 +10°C° 0 mm 1 mps 711 mmHg 87%
    20:00 +10°C° 0 mm 1 mps 711 mmHg 90%
    21:00 +9°C° 0 mm 1 mps 711 mmHg 93%
    22:00 +9°C° 0 mm 1 mps 711 mmHg 96%
    23:00 +8°C° 0 mm 1 mps 711 mmHg 96%

    Day after tomorrow, 1 May, Monday

    Time Temperature Precipitation Wind Pressure Humidity
    00:00 +7°C° 0 mm 1 mps 711 mmHg 96%
    01:00 +7°C° 0 mm 1 mps 710 mmHg 96%
    02:00 +7°C° 0 mm 1 mps 710 mmHg 96%
    03:00 +7°C° 0 mm 1 mps 710 mmHg 96%
    04:00 +7°C° 0 mm 1 mps 710 mmHg 95%
    05:00 +7°C° 0 mm 1 mps 710 mmHg 95%
    06:00 +7°C° 0 mm 1 mps 710 mmHg 94%
    07:00 +7°C° 0 mm 1 mps 710 mmHg 94%
    08:00 +9°C° 0 mm 2 mps 710 mmHg 83%
    09:00 +13°C° 0 mm 2 mps 711 mmHg 73%
    10:00 +16°C° 0 mm 3 mps 711 mmHg 62%
    11:00 +17°C° 0 mm 3 mps 711 mmHg 57%
    12:00 +18°C° 0 mm 4 mps 710 mmHg 53%
    13:00 +20°C° 0 mm 4 mps 710 mmHg 48%
    14:00 +19°C° 0 mm 4 mps 709 mmHg 51%
    15:00 +19°C° 0 mm 3 mps 709 mmHg 53%
    16:00 +18°C° 0 mm 3 mps 709 mmHg 56%
    17:00 +16°C° 0 mm 3 mps 709 mmHg 65%
    18:00 +14°C° 0 mm 2 mps 709 mmHg 75%
    19:00 +12°C° 0 mm 2 mps 709 mmHg 84%
    20:00 +10°C° 0 mm 2 mps 709 mmHg 87%
    21:00 +9°C° 0 mm 2 mps 709 mmHg 89%
    22:00 +9°C° 0 mm 2 mps 710 mmHg 92%
    23:00 +8°C° 0 mm 2 mps 709 mmHg 92%

    2 May, Tuesday

    Time Temperature Precipitation Wind Pressure Humidity
    00:00 +8°C° 0 mm 2 mps 709 mmHg 91%
    01:00 +8°C° 0 mm 2 mps 709 mmHg 91%
    02:00 +9°C° 0 mm 1 mps 709 mmHg 92%
    03:00 +8°C° 0 mm 1 mps 709 mmHg 92%
    04:00 +8°C° 0 mm 1 mps 709 mmHg 92%
    05:00 +8°C° 0 mm 1 mps 709 mmHg 93%
    06:00 +7°C° 0 mm 1 mps 709 mmHg 93%
    07:00 +7°C° 0 mm 1 mps 709 mmHg 93%
    08:00 +10°C° 0 mm 1 mps 710 mmHg 81%
    09:00 +13°C° 0 mm 1 mps 710 mmHg 69%
    10:00 +16°C° 0 mm 1 mps 711 mmHg 57%
    11:00 +17°C° 0 mm 2 mps 711 mmHg 55%
    12:00 +18°C° 0 mm 2 mps 710 mmHg 52%
    13:00 +18°C° 0 mm 2 mps 710 mmHg 50%
    14:00 +17°C° 0.1 mm 2 mps 710 mmHg 56%
    15:00 +16°C° 0.1 mm 2 mps 710 mmHg 62%
    16:00 +16°C° 0.1 mm 2 mps 710 mmHg 67%
    17:00 +14°C° 0.1 mm 1 mps 710 mmHg 75%
    18:00 +12°C° 0.1 mm 1 mps 711 mmHg 83%
    19:00 +11°C° 0.1 mm 1 mps 711 mmHg 92%
    20:00 +9°C° 0.1 mm 0 mps 711 mmHg 93%
    21:00 +9°C° 0.1 mm 0 mps 712 mmHg 94%
    22:00 +8°C° 0.1 mm 0 mps 712 mmHg 95%
    23:00 +8°C° 0 mm 0 mps 712 mmHg 96%

    3 May, Wednesday

    Time Temperature Precipitation Wind Pressure Humidity
    00:00 +8°C° 0 mm 0 mps 712 mmHg 96%
    01:00 +8°C° 0 mm 0 mps 712 mmHg 96%
    02:00 +9°C° 0 mm 1 mps 712 mmHg 96%
    03:00 +9°C° 0 mm 1 mps 712 mmHg 96%
    04:00 +10°C° 0 mm 1 mps 713 mmHg 96%
    05:00 +8°C° 0.1 mm 2 mps 713 mmHg 94%
    06:00 +8°C° 0.1 mm 2 mps 714 mmHg 91%
    07:00 +8°C° 0.1 mm 2 mps 714 mmHg 89%
    08:00 +9°C° 0 mm 2 mps 715 mmHg 81%
    09:00 +10°C° 0 mm 3 mps 715 mmHg 72%
    10:00 +11°C° 0 mm 3 mps 715 mmHg 64%
    11:00 +12°C° 0 mm 3 mps 715 mmHg 61%
    12:00 +13°C° 0 mm 3 mps 715 mmHg 57%
    13:00 +14°C° 0 mm 3 mps 715 mmHg 54%
    14:00 +14°C° 0 mm 3 mps 715 mmHg 55%
    15:00 +14°C° 0 mm 3 mps 715 mmHg 56%
    16:00 +14°C° 0 mm 3 mps 715 mmHg 57%
    17:00 +12°C° 0 mm 3 mps 716 mmHg 66%
    18:00 +11°C° 0 mm 3 mps 716 mmHg 74%
    19:00 +9°C° 0 mm 2 mps 716 mmHg 82%
    20:00 +9°C° 0 mm 2 mps 717 mmHg 85%
    21:00 +9°C° 0 mm 3 mps 717 mmHg 88%
    22:00 +9°C° 0 mm 3 mps 717 mmHg 91%
    23:00 +9°C° 0 mm 3 mps 717 mmHg 91%

    4 May, Thursday

    Time Temperature Precipitation Wind Pressure Humidity
    00:00 +9°C° 0 mm 2 mps 717 mmHg 92%
    01:00 +9°C° 0 mm 2 mps 717 mmHg 93%
    02:00 +9°C° 0 mm 2 mps 717 mmHg 93%
    03:00 +9°C° 0 mm 2 mps 717 mmHg 93%
    04:00 +9°C° 0 mm 2 mps 717 mmHg 94%
    05:00 +9°C° 0 mm 2 mps 718 mmHg 93%
    06:00 +9°C° 0 mm 2 mps 718 mmHg 92%
    07:00 +9°C° 0 mm 2 mps 719 mmHg 91%
    08:00 +12°C° 0 mm 2 mps 719 mmHg 86%
    09:00 +13°C° 0 mm 2 mps 719 mmHg 81%
    10:00 +13°C° 0 mm 3 mps 719 mmHg 77%
    11:00 +13°C° 0.1 mm 3 mps 719 mmHg 75%
    12:00 +13°C° 0.1 mm 3 mps 718 mmHg 73%
    13:00 +15°C° 0.1 mm 2 mps 718 mmHg 72%
    14:00 +15°C° 0.1 mm 2 mps 718 mmHg 73%
    15:00 +14°C° 0.1 mm 3 mps 718 mmHg 75%
    16:00 +13°C° 0.1 mm 3 mps 717 mmHg 76%
    17:00 +13°C° 0.1 mm 2 mps 718 mmHg 82%
    18:00 +13°C° 0.1 mm 2 mps 718 mmHg 88%
    19:00 +12°C° 0.1 mm 2 mps 718 mmHg 93%
    20:00 +12°C° 0.1 mm 2 mps 719 mmHg 94%
    21:00 +12°C° 0.1 mm 2 mps 719 mmHg 94%
    22:00 +11°C° 0.1 mm 1 mps 719 mmHg 94%
    23:00 +11°C° 0 mm 1 mps 719 mmHg 95%
    Show more